Location: Guilderland
(42.7045°N, 73.9115°W)
Time: 22:00:17
(UTC+00:00)

Cosmos 2082 - Pass Details

Date: 24 January 2020
Orbit: 833 x 856 km, 71.0° (Epoch: 20 February)

Event Time Altitude Azimuth Distance (km) Brightness Sun altitude
Rises 22:34:06 0° 182° (S) 3,363 7.1 -7.0°
Reaches altitude 10° 22:36:38 10° 175° (S) 2,435 6.3 -7.4°
Maximum altitude 22:41:50 41° 106° (ESE) 1,192 4.1 -8.3°
Drops below altitude 10° 22:47:04 10° 38° (NE) 2,459 5.6 -9.2°
Enters shadow 22:48:32 - 34° (NNE) 2,992 6.1 -9.5°
